Weather Service Report


551 
ASUS44 KJAN 212203
RWRMS 

MISSISSIPPI HOURLY WEATHER ROUNDUP
NATIONAL WEATHER SERVICE JACKSON MS
500 PM CDT TUE OCT 21 2014

NOTE: "FAIR: INDICATES FEW OR NO CLOUDS BELOW 12,000 FEET WITH NO
SIGNIFICANT WEATHER AND/OR OBSTRUCTIONS TO VISIBILITY.

MSZ001>002-007>008-010>013-018>021-025>028-034>036-212300-
NORTHWEST MISSISSIPPI
  
CITY           SKY/WX    TMP DP  RH WIND       PRES   REMARKS
CLARKSDALE     FAIR      75  54  46 N7        30.04S                  
CLEVELAND      FAIR      78  57  48 N7        30.01F                  
GREENWOOD      SUNNY     78  54  43 N6        30.01F                  
GREENVILLE     SUNNY     79  54  41 N9        30.01F                  
GRENADA          N/A    N/A N/A N/A MISG        N/A                   
OLIVE BRANCH   SUNNY     73  48  40 N9        30.05R                  
OXFORD         FAIR      73  46  38 NW8       30.05S                  
TUNICA         CLEAR     73  45  35 NE9       30.04F                  
$$

MSZ003>006-009-014>017-022>024-029>033-037>039-212300-
NORTHEAST MISSISSIPPI
  
CITY           SKY/WX    TMP DP  RH WIND       PRES   REMARKS
COLUMBUS AFB   SUNNY     75  53  45 N9        30.01S                  
CORINTH        FAIR      73  46  38 N6G12     30.03S                  
GOLDN TRIANGLE MOSUNNY   77  54  44 NW8       30.01R                  
STARKVILLE     MOCLDY    77  54  44 NW5       30.01S                  
TUPELO         SUNNY     74  46  36 N10       30.02S                  
$$

MSZ040-058-212300-
CENTRAL MISSISSIPPI
  
CITY           SKY/WX    TMP DP  RH WIND       PRES   REMARKS
JACKSON INTL   MOSUNNY   77  56  48 N8        30.01S                  
JACKSON HAWKNS SUNNY     76  56  49 N5        30.02S                  
MERIDIAN KEY   SUNNY     77  54  44 N9        30.00S                  
MERIDIAN NAS   SUNNY     78  54  43 NW9       30.00F                  
RAYMOND        MOCLDY    75  72  88 MISG      30.02S                  
VICKSBURG      SUNNY     78  58  49 N6        30.01F                  
$$

MSZ059>079-212300-
SOUTH MISSISSIPPI
  
CITY           SKY/WX    TMP DP  RH WIND       PRES   REMARKS
BROOKHAVEN     FAIR      77  57  50 NW7       30.02S                  
HATTIESBURG    SUNNY     79  54  41 N8        29.99F                  
MCCOMB         SUNNY     79  53  40 N9        30.00S                  
NATCHEZ        SUNNY     75  57  53 N6        30.02S                  
PINE BELT      SUNNY     79  54  41 N6        30.01S                  
$$

MSZ080>082-212300-
COASTAL MISSISSIPPI
  
CITY           SKY/WX    TMP DP  RH WIND       PRES   REMARKS
BAY ST LOUIS   SUNNY     81  46  30 MISG      29.96F                  
BILOXI         SUNNY     80  55  41 NE7       29.96F                  
PASCAGOULA     SUNNY     80  51  36 NE8       29.96F                  
GULFPORT       SUNNY     81  53  37 N7        29.95F                  
$$

Return to Home page


Western Regional Climate Center, wrcc@dri.edu